Time,TemperatureF,DewpointF,PressureIn,WindDirection,WindDirectionDegrees,WindSpeedMPH,WindSpeedGustMPH,Humidity,HourlyPrecipIn,Conditions,Clouds,dailyrainin,SoftwareType,DateUTC
2013-02-11 00:14:00,37.8,36.0,30.30,WSW,254,0.0,0.0,92,0.00,,,0.01,weatherlink.com 1.10,2013-02-11 08:14:00,
2013-02-11 00:29:00,38.0,36.0,30.30,WSW,254,0.0,0.0,92,0.00,,,0.01,weatherlink.com 1.10,2013-02-11 08:29:00,
2013-02-11 00:44:00,38.3,36.0,30.31,WSW,254,0.0,0.0,92,0.00,,,0.01,weatherlink.com 1.10,2013-02-11 08:44:00,
2013-02-11 00:59:00,38.5,36.0,30.30,WSW,254,0.0,1.0,92,0.00,,,0.00,weatherlink.com 1.10,2013-02-11 08:59:00,
2013-02-11 01:14:00,38.7,37.0,30.30,WSW,254,0.0,0.0,92,0.00,,,0.00,weatherlink.com 1.10,2013-02-11 09:14:00,
2013-02-11 01:29:00,38.9,37.0,30.30,WSW,254,0.0,0.0,92,0.00,,,0.00,weatherlink.com 1.10,2013-02-11 09:29:00,
2013-02-11 01:44:00,39.0,37.0,30.30,WSW,254,0.0,0.0,92,0.00,,,0.00,weatherlink.com 1.10,2013-02-11 09:44:00,
2013-02-11 01:59:00,39.1,37.0,30.30,WSW,254,0.0,0.0,93,0.00,,,0.00,weatherlink.com 1.10,2013-02-11 09:59:00,
2013-02-11 02:14:00,39.3,38.0,30.30,East,98,0.0,2.0,93,0.00,,,0.00,weatherlink.com 1.10,2013-02-11 10:14:00,
2013-02-11 02:29:00,39.5,38.0,30.29,East,80,0.0,3.0,93,0.00,,,0.00,weatherlink.com 1.10,2013-02-11 10:29:00,
2013-02-11 02:44:00,39.5,38.0,30.30,East,80,0.0,1.0,93,0.00,,,0.00,weatherlink.com 1.10,2013-02-11 10:44:00,
2013-02-11 02:59:00,39.5,37.0,30.29,East,80,0.0,2.0,92,0.00,,,0.00,weatherlink.com 1.10,2013-02-11 10:59:00,
2013-02-11 03:14:00,39.3,38.0,30.29,East,80,0.0,1.0,93,0.00,,,0.00,weatherlink.com 1.10,2013-02-11 11:14:00,
2013-02-11 03:29:00,38.9,37.0,30.29,East,80,0.0,0.0,93,0.00,,,0.00,weatherlink.com 1.10,2013-02-11 11:29:00,
2013-02-11 03:44:00,38.7,37.0,30.29,East,80,0.0,0.0,94,0.00,,,0.00,weatherlink.com 1.10,2013-02-11 11:44:00,
2013-02-11 03:59:00,38.8,37.0,30.28,East,80,0.0,0.0,94,0.00,,,0.00,weatherlink.com 1.10,2013-02-11 11:59:00,
2013-02-11 04:14:00,38.5,37.0,30.29,East,80,0.0,0.0,94,0.00,,,0.00,weatherlink.com 1.10,2013-02-11 12:14:00,
2013-02-11 04:29:00,38.4,37.0,30.29,East,80,0.0,0.0,94,0.00,,,0.00,weatherlink.com 1.10,2013-02-11 12:29:00,
2013-02-11 04:44:00,38.3,37.0,30.29,East,80,0.0,0.0,95,0.00,,,0.00,weatherlink.com 1.10,2013-02-11 12:44:00,
2013-02-11 04:59:00,38.2,37.0,30.29,East,80,0.0,0.0,95,0.00,,,0.00,weatherlink.com 1.10,2013-02-11 12:59:00,
2013-02-11 05:14:00,38.2,37.0,30.29,East,80,0.0,0.0,95,0.00,,,0.00,weatherlink.com 1.10,2013-02-11 13:14:00,
2013-02-11 05:29:00,38.2,37.0,30.30,East,80,0.0,1.0,95,0.00,,,0.00,weatherlink.com 1.10,2013-02-11 13:29:00,
2013-02-11 05:44:00,38.1,37.0,30.30,East,80,0.0,1.0,95,0.00,,,0.00,weatherlink.com 1.10,2013-02-11 13:44:00,
2013-02-11 05:59:00,38.1,37.0,30.29,East,80,0.0,0.0,95,0.00,,,0.00,weatherlink.com 1.10,2013-02-11 13:59:00,
2013-02-11 06:14:00,38.2,37.0,30.29,East,80,0.0,0.0,95,0.00,,,0.00,weatherlink.com 1.10,2013-02-11 14:14:00,
2013-02-11 06:29:00,38.4,37.0,30.29,East,80,0.0,0.0,95,0.00,,,0.00,weatherlink.com 1.10,2013-02-11 14:29:00,
2013-02-11 06:44:00,38.5,37.0,30.29,East,80,0.0,1.0,95,0.00,,,0.00,weatherlink.com 1.10,2013-02-11 14:44:00,
2013-02-11 07:00:00,38.5,37.0,30.29,East,80,0.0,0.0,95,0.00,,,0.00,weatherlink.com 1.10,2013-02-11 15:00:00,
2013-02-11 07:15:00,38.6,37.0,30.29,East,80,0.0,0.0,95,0.01,,,0.01,weatherlink.com 1.10,2013-02-11 15:15:00,
2013-02-11 07:30:00,38.7,37.0,30.28,East,80,0.0,0.0,95,0.01,,,0.01,weatherlink.com 1.10,2013-02-11 15:30:00,
2013-02-11 07:45:00,38.8,38.0,30.28,East,80,0.0,1.0,95,0.01,,,0.01,weatherlink.com 1.10,2013-02-11 15:45:00,
2013-02-11 08:00:00,38.7,37.0,30.29,East,80,0.0,0.0,95,0.01,,,0.01,weatherlink.com 1.10,2013-02-11 16:00:00,
2013-02-11 08:15:00,38.8,38.0,30.28,East,80,0.0,0.0,96,0.00,,,0.01,weatherlink.com 1.10,2013-02-11 16:15:00,
2013-02-11 08:30:00,39.0,38.0,30.29,East,80,0.0,2.0,96,0.00,,,0.01,weatherlink.com 1.10,2013-02-11 16:30:00,
2013-02-11 08:45:00,39.3,38.0,30.29,East,80,0.0,0.0,96,0.01,,,0.02,weatherlink.com 1.10,2013-02-11 16:45:00,
2013-02-11 09:00:00,39.4,38.0,30.30,East,80,0.0,0.0,96,0.01,,,0.02,weatherlink.com 1.10,2013-02-11 17:00:00,
2013-02-11 09:15:00,39.6,39.0,30.30,East,80,0.0,2.0,96,0.01,,,0.02,weatherlink.com 1.10,2013-02-11 17:15:00,
2013-02-11 09:30:00,39.7,39.0,30.31,East,80,0.0,0.0,96,0.01,,,0.02,weatherlink.com 1.10,2013-02-11 17:30:00,
2013-02-11 09:45:00,39.8,39.0,30.31,East,80,0.0,0.0,96,0.01,,,0.03,weatherlink.com 1.10,2013-02-11 17:45:00,
2013-02-11 10:00:00,39.9,39.0,30.31,East,80,0.0,0.0,96,0.01,,,0.03,weatherlink.com 1.10,2013-02-11 18:00:00,
2013-02-11 10:15:00,40.5,40.0,30.31,East,80,0.0,1.0,96,0.02,,,0.04,weatherlink.com 1.10,2013-02-11 18:15:00,
2013-02-11 10:30:00,41.0,40.0,30.31,East,80,0.0,2.0,96,0.02,,,0.04,weatherlink.com 1.10,2013-02-11 18:30:00,
2013-02-11 10:45:00,41.0,40.0,30.31,East,80,0.0,1.0,96,0.01,,,0.04,weatherlink.com 1.10,2013-02-11 18:45:00,
2013-02-11 11:00:00,40.7,40.0,30.31,South,179,0.0,4.0,96,0.01,,,0.04,weatherlink.com 1.10,2013-02-11 19:00:00,
2013-02-11 11:15:00,41.3,40.0,30.31,SSE,167,1.0,4.0,96,0.00,,,0.04,weatherlink.com 1.10,2013-02-11 19:15:00,
2013-02-11 11:30:00,41.5,40.0,30.31,South,191,0.0,4.0,95,0.00,,,0.04,weatherlink.com 1.10,2013-02-11 19:30:00,
2013-02-11 11:45:00,42.3,41.0,30.30,ENE,78,1.0,4.0,95,0.00,,,0.04,weatherlink.com 1.10,2013-02-11 19:45:00,
2013-02-11 12:00:00,42.8,42.0,30.30,NE,38,0.0,3.0,95,0.00,,,0.04,weatherlink.com 1.10,2013-02-11 20:00:00,
2013-02-11 12:15:00,43.1,42.0,30.30,ENE,57,0.0,3.0,94,0.00,,,0.04,weatherlink.com 1.10,2013-02-11 20:15:00,
2013-02-11 12:30:00,43.3,42.0,30.29,ENE,57,0.0,1.0,94,0.00,,,0.04,weatherlink.com 1.10,2013-02-11 20:30:00,
2013-02-11 12:45:00,43.6,42.0,30.29,ENE,57,0.0,1.0,92,0.00,,,0.04,weatherlink.com 1.10,2013-02-11 20:45:00,
2013-02-11 13:00:00,44.0,42.0,30.29,ENE,71,0.0,0.0,92,0.00,,,0.04,weatherlink.com 1.10,2013-02-11 21:00:00,
2013-02-11 13:15:00,44.3,42.0,30.29,ENE,71,0.0,1.0,90,0.00,,,0.04,weatherlink.com 1.10,2013-02-11 21:15:00,
2013-02-11 13:30:00,44.6,41.0,30.29,ENE,71,0.0,3.0,88,0.00,,,0.04,weatherlink.com 1.10,2013-02-11 21:30:00,
2013-02-11 13:45:00,44.7,41.0,30.28,East,80,0.0,1.0,88,0.00,,,0.04,weatherlink.com 1.10,2013-02-11 21:45:00,
2013-02-11 14:00:00,45.0,41.0,30.28,East,80,0.0,1.0,87,0.00,,,0.04,weatherlink.com 1.10,2013-02-11 22:00:00,
2013-02-11 14:15:00,44.6,40.0,30.28,South,190,0.0,6.0,84,0.00,,,0.04,weatherlink.com 1.10,2013-02-11 22:15:00,
2013-02-11 14:30:00,44.8,40.0,30.28,South,186,0.0,2.0,83,0.00,,,0.04,weatherlink.com 1.10,2013-02-11 22:30:00,
2013-02-11 14:45:00,45.7,41.0,30.28,South,181,2.0,2.0,84,0.00,,,0.04,weatherlink.com 1.10,2013-02-11 22:45:00,
2013-02-11 15:00:00,45.8,40.0,30.28,SSW,196,0.0,3.0,81,0.00,,,0.04,weatherlink.com 1.10,2013-02-11 23:00:00,
2013-02-11 15:15:00,46.2,40.0,30.28,South,188,0.0,4.0,80,0.00,,,0.04,weatherlink.com 1.10,2013-02-11 23:15:00,
2013-02-11 15:30:00,46.1,40.0,30.28,ENE,72,0.0,4.0,79,0.00,,,0.04,weatherlink.com 1.10,2013-02-11 23:30:00,
2013-02-11 15:45:00,46.0,40.0,30.28,ENE,72,0.0,3.0,80,0.00,,,0.04,weatherlink.com 1.10,2013-02-11 23:45:00,
2013-02-11 16:00:00,46.0,41.0,30.28,ENE,72,0.0,2.0,82,0.00,,,0.04,weatherlink.com 1.10,2013-02-12 00:00:00,
2013-02-11 16:15:00,46.1,41.0,30.28,ENE,72,0.0,0.0,81,0.00,,,0.04,weatherlink.com 1.10,2013-02-12 00:15:00,
2013-02-11 16:30:00,45.9,40.0,30.28,SSE,153,0.0,1.0,79,0.00,,,0.04,weatherlink.com 1.10,2013-02-12 00:30:00,
2013-02-11 16:45:00,45.5,40.0,30.28,SSW,197,0.0,1.0,81,0.00,,,0.04,weatherlink.com 1.10,2013-02-12 00:45:00,
2013-02-11 17:00:00,45.4,40.0,30.28,SSW,197,0.0,1.0,80,0.00,,,0.04,weatherlink.com 1.10,2013-02-12 01:00:00,
2013-02-11 17:15:00,45.1,39.0,30.29,South,190,0.0,7.0,80,0.00,,,0.04,weatherlink.com 1.10,2013-02-12 01:15:00,
2013-02-11 17:30:00,44.9,39.0,30.29,South,184,5.0,7.0,81,0.00,,,0.04,weatherlink.com 1.10,2013-02-12 01:30:00,
2013-02-11 17:45:00,44.7,40.0,30.29,SSW,192,2.0,5.0,82,0.00,,,0.04,weatherlink.com 1.10,2013-02-12 01:45:00,
2013-02-11 18:00:00,44.7,40.0,30.29,South,190,0.0,5.0,83,0.00,,,0.04,weatherlink.com 1.10,2013-02-12 02:00:00,
2013-02-11 18:15:00,44.6,40.0,30.29,South,190,0.0,1.0,83,0.00,,,0.04,weatherlink.com 1.10,2013-02-12 02:15:00,
2013-02-11 18:30:00,44.5,40.0,30.30,South,190,0.0,0.0,84,0.00,,,0.04,weatherlink.com 1.10,2013-02-12 02:30:00,
2013-02-11 18:45:00,44.4,40.0,30.29,SE,131,2.0,2.0,85,0.00,,,0.04,weatherlink.com 1.10,2013-02-12 02:45:00,
2013-02-11 19:00:00,44.2,40.0,30.29,East,96,0.0,1.0,86,0.00,,,0.04,weatherlink.com 1.10,2013-02-12 03:00:00,
2013-02-11 19:15:00,43.8,40.0,30.29,East,96,0.0,0.0,86,0.00,,,0.04,weatherlink.com 1.10,2013-02-12 03:15:00,
2013-02-11 19:30:00,43.6,40.0,30.29,East,96,0.0,0.0,87,0.00,,,0.04,weatherlink.com 1.10,2013-02-12 03:30:00,
2013-02-11 19:45:00,43.4,40.0,30.29,East,96,0.0,1.0,87,0.00,,,0.04,weatherlink.com 1.10,2013-02-12 03:45:00,
2013-02-11 20:00:00,43.1,40.0,30.29,East,96,0.0,0.0,88,0.00,,,0.04,weatherlink.com 1.10,2013-02-12 04:00:00,
2013-02-11 20:15:00,43.0,40.0,30.29,East,96,0.0,0.0,88,0.00,,,0.04,weatherlink.com 1.10,2013-02-12 04:15:00,
2013-02-11 20:30:00,43.1,40.0,30.30,East,96,0.0,1.0,88,0.00,,,0.04,weatherlink.com 1.10,2013-02-12 04:30:00,
2013-02-11 20:45:00,43.0,40.0,30.29,East,96,0.0,0.0,89,0.00,,,0.04,weatherlink.com 1.10,2013-02-12 04:45:00,
2013-02-11 21:00:00,42.9,40.0,30.28,East,96,0.0,1.0,89,0.00,,,0.04,weatherlink.com 1.10,2013-02-12 05:00:00,
2013-02-11 21:15:00,42.8,40.0,30.29,East,96,0.0,0.0,89,0.00,,,0.04,weatherlink.com 1.10,2013-02-12 05:15:00,
2013-02-11 21:30:00,42.8,40.0,30.28,East,96,2.0,3.0,88,0.00,,,0.04,weatherlink.com 1.10,2013-02-12 05:30:00,
2013-02-11 21:45:00,42.5,40.0,30.29,East,96,0.0,1.0,89,0.00,,,0.04,weatherlink.com 1.10,2013-02-12 05:45:00,
2013-02-11 22:00:00,42.4,39.0,30.29,East,96,0.0,0.0,89,0.00,,,0.04,weatherlink.com 1.10,2013-02-12 06:00:00,
2013-02-11 22:15:00,42.6,40.0,30.29,East,96,0.0,1.0,89,0.00,,,0.04,weatherlink.com 1.10,2013-02-12 06:15:00,
2013-02-11 22:30:00,42.6,40.0,30.29,East,96,0.0,0.0,89,0.00,,,0.04,weatherlink.com 1.10,2013-02-12 06:30:00,
2013-02-11 22:45:00,42.5,40.0,30.30,East,96,0.0,1.0,90,0.00,,,0.04,weatherlink.com 1.10,2013-02-12 06:45:00,
2013-02-11 23:00:00,42.4,40.0,30.30,East,96,0.0,0.0,90,0.00,,,0.04,weatherlink.com 1.10,2013-02-12 07:00:00,
2013-02-11 23:15:00,42.4,40.0,30.30,East,96,0.0,1.0,90,0.00,,,0.04,weatherlink.com 1.10,2013-02-12 07:15:00,
2013-02-11 23:30:00,42.2,40.0,30.30,East,96,0.0,2.0,91,0.00,,,0.04,weatherlink.com 1.10,2013-02-12 07:30:00,
2013-02-11 23:45:00,42.1,40.0,30.30,East,96,0.0,0.0,91,0.00,,,0.04,weatherlink.com 1.10,2013-02-12 07:45:00,